Location: Berlin
(38.3226°N, 75.2177°W)
Time: 10:52:07
(UTC+00:00)

Cosmos 1626 - Pass Details

Date: 26 October 2020
Orbit: 491 x 493 km, 82.5° (Epoch: 29 November)

Event Time Altitude Azimuth Distance (km) Brightness Sun altitude
Rises 10:35:52 0° 224° (SW) 2,561 5.4 -9.6°
Reaches altitude 10° 10:38:38 10° 247° (WSW) 1,684 4.3 -9.0°
Maximum altitude 10:40:56 16° 286° (WNW) 1,366 3.7 -8.6°
Drops below altitude 10° 10:43:15 10° 325° (NW) 1,692 4.4 -8.1°
Sets 10:46:03 0° 348° (NNW) 2,579 5.5 -7.6°
